Regional Weather Roundup
Issued by NWS Huntsville, AL

Current Version | Previous Version | Text Only | Print | Product List | Glossary On
Versions: 1 2 3 4 5 6 7 8 9 10 11 12 13 14 15 16 17 18 19 20 21 22 23 24 25 26 27 28 29 30 31 32 33 34 35 36 37 38 39 40 41 42 43 44 45 46 47 48 49 50
385
ASUS44 KHUN 040110
RWRHUN

WEATHER ROUNDUP FOR THE TENNESSEE VALLEY
NATIONAL WEATHER SERVICE HUNTSVILLE AL
800 PM CDT TUE MAY 03 2016

ALZ001>004-040200-
NORTHWEST ALABAMA

CITY           SKY/WX    TMP DP  RH WIND       PRES   REMARKS
COURTLAND HCN    N/A     63 N/A N/A NW7         N/A
RUSSELLVILLE     N/A     61 N/A N/A MISG        N/A
SHOALS AIRPORT CLOUDY    63  49  60 NW7       29.94R
SHOALS TVA RES   N/A     63 N/A N/A MISG        N/A
$$

ALZ005>007-016-040200-
NORTH CENTRAL ALABAMA

CITY           SKY/WX    TMP DP  RH WIND       PRES   REMARKS
CULLMAN AG STN   N/A     63 N/A N/A NW5         N/A
DECATUR AP     MOCLDY    63  49  60 NW13      29.92R
HUNTSVILLE AP  MOCLDY    64  49  57 NW10      29.91R
HUN NWS/UAH      N/A     64  46  52 N7          N/A
MERIDIANVILLE  CLOUDY    61  45  55 NW6       29.91R
REDSTONE ARSN  CLOUDY    63  49  61 N8        29.90R
VINEMONT AP    MOCLDY    60  49  66 CALM      29.94R
$$

ALZ008>010-040200-
NORTHEAST ALABAMA

CITY           SKY/WX    TMP DP  RH WIND       PRES   REMARKS
ALBERTVILLE    MOCLDY    63  55  77 NW6       29.89R
FORT PAYNE     MOCLDY    63  48  59 CALM      29.88R
SCOTTSBORO AP  CLOUDY    64  50  59 N6        29.89R
SCOTTSBORO HCN   N/A     64 N/A N/A MISG        N/A
VALLEY HEAD      N/A     63 N/A N/A MISG        N/A
$$

TNZ076-096-097-040200-
SOUTHEASTERN MIDDLE TENNESSEE

CITY           SKY/WX    TMP DP  RH WIND       PRES   REMARKS
TULLAHOMA      CLOUDY    57  48  72 N14       29.92S
WINCHESTER     CLOUDY    61  48  63 N7        29.92R
$$

...SURROUNDING SITES...

CITY           SKY/WX    TMP DP  RH WIND       PRES   REMARKS
ATLANTA        PTCLDY    68  53  58 NW10      29.85R
ANNISTON       MOCLDY    69  52  54 NW7       29.88R
BIRMINGHAM     MOCLDY    67  52  58 W8        29.92R
CHATTANOOGA    MOCLDY    65  49  56 NW9       29.88R
DALTON         CLOUDY    63  54  72 N7        29.87R
GADSDEN        MOCLDY    64  55  72 SW3       29.89R
GOLDEN TRNGL   MOCLDY    66  52  59 NW7       29.93R
HALEYVILLE     CLOUDY    60  49  66 MISG      29.95R
JACKSON TN     MOCLDY    60  49  66 W3        29.95S
MEMPHIS        PTCLDY    60  47  61 NW3       29.97S
NASHVILLE      CLOUDY    61  44  53 NW7       29.93S
OXFORD MS      FAIR      57  46  67 NW3       29.99S
ROME           MOCLDY    66  51  58 NW6       29.86R
SAVANNAH       PTCLDY    59  52  77 CALM      29.94R
TUPELO         PTCLDY    63  49  60 NW8       29.95R
TUSCALOOSA     CLOUDY    67  53  61 NW5       29.91R
$$

...GULF COAST WEATHER...

CITY           SKY/WX    TMP DP  RH WIND       PRES   REMARKS
GULFPORT       MOCLDY    70  65  84 N3        29.89R
PASCAGOULA     CLOUDY    70  67  90 CALM      29.90R
MOBILE         MOCLDY    68  66  93 W3        29.91R
GULF SHORES    CLOUDY    70  70  99 NW9       29.88S
PENSACOLA      CLOUDY    72  68  87 NW5       29.87R
DESTIN         HVY RAIN  75  73  93 W7        29.86R FOG
PANAMA CITY    PTCLDY    76  72  86 SW12      29.85R
APPALACHICOLA  PTCLDY    75  71  87 W7        29.84F
$$





USA.gov is the U.S. government's official web portal to all federal, state and local government web resources and services.